DW5051 East Harwich MA US current weather conditions

sailwx.info

Wind from 166 at 8 knots gusting 22

Air temperature 12.2° C
Dewpoint 11.3° C

Last reported at 2019-Dec-10 00:03 UTC.
Time now 2019-Dec-10 00:30 UTC

Location: N 41°43' W 070°02'.
View on Google Maps.

See reports from other nearby stations

  
Tides and Currents Weather Stations Pressure Air Temp Water Temp Dewpoint Dewpoint Depression Visibility Wind Speed Wind Dir Waves Ship Positions
date/time (UTC)wind fromknots sea level pressurealtimeterstation pressurevisibilityair tempwater tempwave heightnotes
2019-Dec-10 00:03 166 8 gusting 22 12.2
2019-Dec-09 23:54 170 6 gusting 27 12.2
2019-Dec-09 23:45 175 6 gusting 19 12.2
2019-Dec-09 23:36 173 8 gusting 25 12.2
2019-Dec-09 23:27 173 7 gusting 25 12.2
2019-Dec-09 23:18 170 6 gusting 20 12.2
2019-Dec-09 23:09 166 7 gusting 22 12.2
2019-Dec-09 23:00 172 6 gusting 22 12.2
2019-Dec-09 22:51 177 6 gusting 23 11.7
2019-Dec-09 22:42 183 7 gusting 32 11.7
2019-Dec-09 22:33 175 6 gusting 19 11.1
2019-Dec-09 22:24 170 6 gusting 19 11.1
2019-Dec-09 22:15 169 6 gusting 17 11.1
2019-Dec-09 22:06 167 6 gusting 21 11.1
2019-Dec-09 21:57 169 6 gusting 14 11.1
2019-Dec-09 21:48 175 6 gusting 16 11.1
2019-Dec-09 21:39 172 4 gusting 13 10.6
2019-Dec-09 21:30 159 4 gusting 13 10.6
2019-Dec-09 21:21 159 5 gusting 13 10.6
2019-Dec-09 21:12 169 5 gusting 12 10.6
2019-Dec-09 21:03 170 5 gusting 15 11.1
2019-Dec-09 20:54 164 5 gusting 12 11.1
2019-Dec-09 20:45 163 5 gusting 17 11.1
2019-Dec-09 20:36 156 5 gusting 11 10.6
2019-Dec-09 20:27 161 5 gusting 17 10.0
2019-Dec-09 20:18 149 6 gusting 13 10.6
2019-Dec-09 20:09 150 5 gusting 14 10.6
2019-Dec-09 20:00 148 4 gusting 10 10.6
2019-Dec-09 19:51 157 4 gusting 13 10.6
2019-Dec-09 19:42 148 5 gusting 11 10.6
2019-Dec-09 19:33 152 5 gusting 13 10.6
2019-Dec-09 19:24 156 5 gusting 15 10.6
2019-Dec-09 19:15 165 5 gusting 16 10.6
2019-Dec-09 19:06 166 4 gusting 16 10.6
2019-Dec-09 18:57 161 5 gusting 16 10.6
2019-Dec-09 18:48 165 6 gusting 16 10.6
2019-Dec-09 18:39 167 5 gusting 13 10.6
2019-Dec-09 18:30 165 6 gusting 13 10.6
2019-Dec-09 18:21 167 6 gusting 14 10.6
2019-Dec-09 18:12 167 5 gusting 16 10.6
2019-Dec-09 18:03 158 6 gusting 15 10.6
2019-Dec-09 17:54 163 6 gusting 14 10.6
2019-Dec-09 17:46 166 6 gusting 17 10.6
2019-Dec-09 17:40 167 6 gusting 13 10.6
2019-Dec-09 17:27 168 6 gusting 14 10.0
2019-Dec-09 17:18 168 5 gusting 13 10.0
2019-Dec-09 17:09 162 5 gusting 14 10.0
2019-Dec-09 17:00 164 4 gusting 14 10.0
2019-Dec-09 16:51 169 5 gusting 13 10.0
2019-Dec-09 16:42 170 5 gusting 13 10.0
2019-Dec-09 16:33 171 5 gusting 14 10.0
2019-Dec-09 16:24 171 6 gusting 18 10.0
2019-Dec-09 16:15 173 6 gusting 15 10.0
2019-Dec-09 16:06 166 5 gusting 14 10.0
2019-Dec-09 15:57 164 4 gusting 11 10.0
2019-Dec-09 15:48 165 5 gusting 10 10.0
2019-Dec-09 15:39 170 5 gusting 13 10.0
2019-Dec-09 15:30 172 5 gusting 14 10.0
2019-Dec-09 15:21 169 4 gusting 14 10.0
2019-Dec-09 15:12 167 4 gusting 14 9.4
2019-Dec-09 15:03 164 4 gusting 13 9.4
2019-Dec-09 14:54 170 4 gusting 16 10.0
2019-Dec-09 14:45 186 3 gusting 10 10.0
2019-Dec-09 14:36 177 3 gusting 8 10.0
2019-Dec-09 14:27 173 4 gusting 11 10.0
2019-Dec-09 14:18 172 4 gusting 11 10.0
2019-Dec-09 14:09 166 4 gusting 11 10.0
2019-Dec-09 14:00 168 3 gusting 13 9.4
2019-Dec-09 13:51 173 2 gusting 8 9.4
2019-Dec-09 13:42 185 2 gusting 8 9.4
2019-Dec-09 13:33 188 2 gusting 6 9.4
2019-Dec-09 13:24 199 1 gusting 6 9.4
2019-Dec-09 13:15 194 2 gusting 7 8.9
2019-Dec-09 13:06 182 2 gusting 10 8.9
2019-Dec-09 12:57 194 1 gusting 5 8.3
2019-Dec-09 12:48 212 0 gusting 4 8.3
2019-Dec-09 12:39 183 0 gusting 1 7.8
2019-Dec-09 12:30 175 0 gusting 4 7.8
2019-Dec-09 12:21 176 0 gusting 3 7.8
2019-Dec-09 12:12 183 1 gusting 3 8.3
2019-Dec-09 12:03 191 1 gusting 5 8.3
2019-Dec-09 11:54 174 2 gusting 6 8.3
2019-Dec-09 11:45 156 2 gusting 9 8.3
2019-Dec-09 11:36 171 3 gusting 6 8.3
2019-Dec-09 11:27 177 2 gusting 8 8.3
2019-Dec-09 11:18 172 2 gusting 7 8.3
2019-Dec-09 11:09 171 3 gusting 11 8.3
2019-Dec-09 11:00 175 3 gusting 6 8.3
2019-Dec-09 10:51 173 3 gusting 8 8.3
2019-Dec-09 10:42 168 2 gusting 11 7.8
2019-Dec-09 10:33 166 3 gusting 8 7.8
2019-Dec-09 10:24 170 3 gusting 9 7.8
2019-Dec-09 10:15 173 3 gusting 7 7.8
2019-Dec-09 10:06 167 3 gusting 9 7.8
2019-Dec-09 09:57 168 4 gusting 11 8.3
2019-Dec-09 09:48 175 4 gusting 15 8.3
2019-Dec-09 09:39 177 4 gusting 15 7.8
2019-Dec-09 09:30 184 3 gusting 9 7.8
2019-Dec-09 09:21 174 3 gusting 12 7.8
2019-Dec-09 09:12 181 4 gusting 10 7.8
2019-Dec-09 09:03 178 3 gusting 8 7.2
2019-Dec-09 08:54 178 4 gusting 9 7.2
2019-Dec-09 08:45 185 3 gusting 9 6.7
2019-Dec-09 08:36 176 3 gusting 8 6.7
2019-Dec-09 08:27 171 2 gusting 8 6.7
2019-Dec-09 08:18 169 2 gusting 7 6.7
2019-Dec-09 08:09 172 2 gusting 9 6.7
2019-Dec-09 08:00 170 2 gusting 12 6.7
2019-Dec-09 07:51 179 3 gusting 7 6.1
2019-Dec-09 07:42 177 3 gusting 10 6.1
2019-Dec-09 07:33 176 3 gusting 8 6.1
2019-Dec-09 07:24 177 3 gusting 9 6.1
2019-Dec-09 07:15 182 3 gusting 9 6.1
2019-Dec-09 07:06 183 3 gusting 7 6.1
2019-Dec-09 06:57 181 3 gusting 11 6.1
2019-Dec-09 06:48 187 4 gusting 11 6.1
2019-Dec-09 06:39 193 3 gusting 7 6.1
2019-Dec-09 06:30 187 3 gusting 10 6.1
2019-Dec-09 06:21 189 4 gusting 8 6.1
2019-Dec-09 06:12 184 4 gusting 11 5.6
2019-Dec-09 06:03 191 4 gusting 9 6.1
2019-Dec-09 05:54 187 4 gusting 10 6.1
2019-Dec-09 05:45 185 4 gusting 14 5.6
2019-Dec-09 05:36 179 4 gusting 13 5.6
2019-Dec-09 05:27 176 5 gusting 12 5.6
2019-Dec-09 05:18 175 4 gusting 12 5.6
2019-Dec-09 05:09 173 4 gusting 10 5.6
2019-Dec-09 05:00 188 4 gusting 14 5.6
2019-Dec-09 04:51 181 4 gusting 11 5.6
2019-Dec-09 04:42 183 4 gusting 10 5.6
2019-Dec-09 04:33 181 4 gusting 10 5.6
2019-Dec-09 04:24 187 4 gusting 12 5.6
2019-Dec-09 04:15 185 4 gusting 12 5.6
2019-Dec-09 04:06 187 4 gusting 12 5.6
2019-Dec-09 03:57 191 5 gusting 13 5.0
2019-Dec-09 03:48 192 4 gusting 11 5.0
2019-Dec-09 03:39 185 5 gusting 12 5.0
2019-Dec-09 03:30 188 5 gusting 14 5.0
2019-Dec-09 03:21 186 5 gusting 14 4.4
2019-Dec-09 03:12 188 4 gusting 12 4.4
2019-Dec-09 03:03 179 4 gusting 12 4.4
2019-Dec-09 02:54 183 4 gusting 10 4.4
2019-Dec-09 02:45 185 4 gusting 11 4.4
2019-Dec-09 02:36 183 5 gusting 13 4.4
2019-Dec-09 02:27 186 4 gusting 13 3.9
2019-Dec-09 02:18 184 5 gusting 12 4.4
2019-Dec-09 02:09 191 5 gusting 16 3.9
2019-Dec-09 02:00 184 6 gusting 11 3.9
2019-Dec-09 01:51 185 6 gusting 13 3.9
2019-Dec-09 01:42 193 6 gusting 14 3.9
2019-Dec-09 01:33 195 5 gusting 14 3.9
2019-Dec-09 01:24 199 4 gusting 14 3.9
2019-Dec-09 01:15 193 4 gusting 12 3.3
2019-Dec-09 01:06 193 4 gusting 10 3.3
2019-Dec-09 00:57 194 4 gusting 13 3.3
2019-Dec-09 00:48 183 5 gusting 12 3.3
2019-Dec-09 00:39 187 4 gusting 9 3.3
2019-Dec-09 00:17 189 3 gusting 11 2.8
2019-Dec-09 00:08 190 4 gusting 10 2.8
2019-Dec-08 23:59 188 5 gusting 13 2.8
2019-Dec-08 23:50 192 4 gusting 13 2.2
2019-Dec-08 23:41 195 4 gusting 13 2.2
2019-Dec-08 23:32 190 4 gusting 16 2.2
2019-Dec-08 23:23 187 3 gusting 11 2.2
2019-Dec-08 23:14 191 3 gusting 13 2.2
2019-Dec-08 23:05 188 4 gusting 13 2.2
2019-Dec-08 22:56 190 3 gusting 8 1.7
2019-Dec-08 22:47 195 3 gusting 8 1.7
2019-Dec-08 22:38 194 2 gusting 7 1.7
2019-Dec-08 22:29 194 1 gusting 6 1.7
2019-Dec-08 22:20 198 2 gusting 7 1.7
2019-Dec-08 22:11 206 3 gusting 9 1.7
2019-Dec-08 22:02 196 3 gusting 9 1.1
2019-Dec-08 21:53 199 3 gusting 9 1.1
2019-Dec-08 21:44 198 3 gusting 7 1.1
2019-Dec-08 21:35 204 3 gusting 7 1.1
2019-Dec-08 21:26 193 3 gusting 8 1.1
2019-Dec-08 21:17 193 4 gusting 12 1.1
2019-Dec-08 21:08 199 3 gusting 9 0.6
2019-Dec-08 20:59 196 3 gusting 8 0.6
2019-Dec-08 20:50 208 3 gusting 9 0.6
2019-Dec-08 20:41 197 3 gusting 8 0.6
2019-Dec-08 20:32 202 3 gusting 10 0.6
2019-Dec-08 20:23 199 3 gusting 9 0.6
2019-Dec-08 20:14 203 3 gusting 7 0.6
2019-Dec-08 20:05 199 4 gusting 10 1.1
2019-Dec-08 19:56 204 3 gusting 10 0.6
2019-Dec-08 19:47 209 4 gusting 9 0.6
2019-Dec-08 19:38 205 4 gusting 10 0.6
2019-Dec-08 19:29 194 4 gusting 10 0.6
2019-Dec-08 19:20 195 4 gusting 12 1.1
2019-Dec-08 19:11 194 5 gusting 12 1.1
2019-Dec-08 19:02 202 5 gusting 11 1.1
2019-Dec-08 18:53 196 4 gusting 13 1.1
2019-Dec-08 18:44 194 4 gusting 11 1.1
2019-Dec-08 18:35 177 4 gusting 9 1.1
2019-Dec-08 18:26 174 4 gusting 9 1.1
2019-Dec-08 18:17 205 3 gusting 8 1.1
2019-Dec-08 18:08 187 3 gusting 10 0.6
2019-Dec-08 17:59 182 3 gusting 11 0.6
2019-Dec-08 17:50 186 4 gusting 9 0.6
2019-Dec-08 17:41 192 3 gusting 8 0.6
2019-Dec-08 17:32 203 4 gusting 10 0.6
2019-Dec-08 17:23 185 3 gusting 7 0.6
2019-Dec-08 17:14 207 4 gusting 8 0.6
2019-Dec-08 17:05 202 3 gusting 7 1.1
2019-Dec-08 16:56 170 4 gusting 8 0.6
2019-Dec-08 16:47 189 2 gusting 6 0.6
2019-Dec-08 16:38 169 2 gusting 6 1.1
2019-Dec-08 16:29 189 2 gusting 7 0.6
2019-Dec-08 16:20 201 3 gusting 9 0.6
2019-Dec-08 16:11 199 3 gusting 9 -0.0
2019-Dec-08 16:02 200 3 gusting 7 -0.0
2019-Dec-08 15:53 214 4 gusting 10 -0.0
2019-Dec-08 15:44 202 3 gusting 8 -0.0
2019-Dec-08 15:35 212 3 gusting 6 0.6
2019-Dec-08 15:26 225 3 gusting 6 -0.0
2019-Dec-08 15:17 213 1 gusting 5 -0.0
2019-Dec-08 15:08 207 2 gusting 5 -0.0
2019-Dec-08 14:59 225 1 gusting 3 -0.0
2019-Dec-08 14:50 279 1 gusting 3 -0.0
2019-Dec-08 14:41 262 1 gusting 3 -0.6
2019-Dec-08 14:32 277 1 gusting 5 -0.6
2019-Dec-08 14:23 273 2 gusting 5 -1.1
2019-Dec-08 14:14 242 1 gusting 5 -1.1
2019-Dec-08 14:05 225 0 gusting 2 -1.1
2019-Dec-08 13:56 225 0 gusting 3 -1.7
2019-Dec-08 13:47 225 -2.2
2019-Dec-08 13:38 231 1 gusting 4 -2.2
2019-Dec-08 13:29 285 0 gusting 4 -2.8
2019-Dec-08 13:20 298 0 gusting 2 -3.3
2019-Dec-08 13:11 302 0 gusting 2 -3.9
2019-Dec-08 13:02 301 -4.4
2019-Dec-08 12:53 302 -4.4
2019-Dec-08 12:44 302 -5.0
2019-Dec-08 12:35 -6.7
2019-Dec-08 12:26 -6.7
2019-Dec-08 12:17 -7.2
2019-Dec-08 12:08 -6.7
2019-Dec-08 11:59 -6.7
2019-Dec-08 11:50 -6.7
2019-Dec-08 11:41 -7.2
2019-Dec-08 11:32 -6.7
2019-Dec-08 11:23 -7.2
2019-Dec-08 11:14 -7.2
2019-Dec-08 11:05 -7.2
2019-Dec-08 10:56 -6.7
2019-Dec-08 10:47 -6.7
2019-Dec-08 10:38 -6.7
2019-Dec-08 10:29 -6.7
2019-Dec-08 10:20 -6.7
2019-Dec-08 10:11 -6.1
2019-Dec-08 10:02 -6.1
2019-Dec-08 09:53 -6.1
2019-Dec-08 09:44 303 -5.6
2019-Dec-08 09:35 -5.6
2019-Dec-08 09:26 -5.0
2019-Dec-08 09:17 -5.0
2019-Dec-08 09:08 -5.0
2019-Dec-08 08:59 -4.4
2019-Dec-08 08:50 -4.4
2019-Dec-08 08:41 -3.9
2019-Dec-08 08:32 302 -3.3
2019-Dec-08 08:23 307 -3.3
2019-Dec-08 08:14 310 -3.3
2019-Dec-08 08:05 311 -2.8
2019-Dec-08 07:56 306 0 gusting 4 -2.8
2019-Dec-08 07:47 308 0 gusting 3 -2.8
2019-Dec-08 07:38 321 -2.8
2019-Dec-08 07:29 326 0 gusting 2 -2.2
2019-Dec-08 07:20 343 0 gusting 2 -2.2
2019-Dec-08 07:11 319 1 gusting 7 -2.2
2019-Dec-08 07:02 319 1 gusting 4 -2.2
2019-Dec-08 06:53 308 2 gusting 6 -1.7
2019-Dec-08 06:44 312 1 gusting 6 -1.7
2019-Dec-08 06:35 316 1 gusting 6 -1.7
2019-Dec-08 06:26 329 3 gusting 9 -1.7
2019-Dec-08 06:17 322 2 gusting 7 -1.7
2019-Dec-08 06:08 340 1 gusting 6 -1.7
2019-Dec-08 05:59 329 1 gusting 3 -1.7
2019-Dec-08 05:50 330 1 gusting 3 -1.7
2019-Dec-08 05:41 318 1 gusting 7 -1.7
2019-Dec-08 05:32 314 2 gusting 7 -1.7
2019-Dec-08 05:23 314 2 gusting 6 -1.7
2019-Dec-08 05:14 319 2 gusting 8 -1.7
2019-Dec-08 05:05 310 1 gusting 8 -1.7
2019-Dec-08 04:56 316 3 gusting 11 -1.1
2019-Dec-08 04:47 313 4 gusting 12 -1.1
2019-Dec-08 04:38 322 2 gusting 7 -1.1
2019-Dec-08 04:29 318 3 gusting 9 -1.1
2019-Dec-08 04:20 308 3 gusting 8 -1.1
2019-Dec-08 04:11 314 3 gusting 8 -1.1
2019-Dec-08 04:02 319 3 gusting 9 -1.1
2019-Dec-08 03:53 315 3 gusting 9 -1.1
2019-Dec-08 03:44 316 3 gusting 12 -1.1
2019-Dec-08 03:35 324 2 gusting 8 -1.1
2019-Dec-08 03:26 309 4 gusting 10 -0.6
2019-Dec-08 03:17 314 4 gusting 11 -0.6
2019-Dec-08 03:08 304 5 gusting 13 -0.6
2019-Dec-08 02:59 310 4 gusting 12 -0.6
2019-Dec-08 02:50 312 4 gusting 11 -0.6
2019-Dec-08 02:41 306 3 gusting 10 -0.6
2019-Dec-08 02:32 306 4 gusting 12 -0.6
2019-Dec-08 02:23 303 3 gusting 9 -0.6
2019-Dec-08 02:14 297 5 gusting 11 -0.6
2019-Dec-08 02:05 310 4 gusting 13 -0.6
2019-Dec-08 01:56 298 3 gusting 12 -0.6
2019-Dec-08 01:47 286 2 gusting 9 -1.1
2019-Dec-08 01:38 284 2 gusting 6 -1.1
2019-Dec-08 01:29 270 3 gusting 10 -1.1
2019-Dec-08 01:20 277 3 gusting 9 -0.6
2019-Dec-08 01:11 291 3 gusting 10 -0.6
2019-Dec-08 01:02 284 3 gusting 10 -1.1
2019-Dec-08 00:53 296 3 gusting 11 -0.6
2019-Dec-08 00:44 294 3 gusting 10 -0.6
2019-Dec-08 00:35 284 2 gusting 9 -0.6
2019-Dec-08 00:26 274 2 gusting 9 -0.6
2019-Dec-08 00:17 291 3 gusting 10 -0.6
2019-Dec-08 00:08 290 3 gusting 9 -0.6